Flag for Germany Past Weather in Leinfelden-Echterdingen, Baden-Württemberg, Germany — Yesterday and Last 2 Weeks

Now
19 °F

Snow flurries. Ice fog.


Feels Like: 14 °F
Forecast: 7 / 22 °F
Wind: 3 mph from Southwest

Location: Stuttgart-Echterdingen

Current Time: Jan 24, 2017 at 10:20:29 am

Latest Report: Jan 24, 2017 at 9:50 am


Visibility: 1 mi

Pressure: 30.27 "Hg

Humidity: 93%

Dew Point: 18 °F

Location of Leinfelden-EchterdingenLocation

Past Weather in Leinfelden-Echterdingen — Graph

°F

Leinfelden-Echterdingen Temperature Yesterday

Maximum temperature yesterday: 27 °F (at 1:50 pm)
Minimum temperature yesterday: 9 °F (at 6:20 am)
Average temperature yesterday: 16 °F

High & Low Weather Summary for the Past Weeks

 TemperatureHumidityPressure
High43 °F (Jan 13, 12:20 am)100% (Jan 9, 9:20 am)30.51 "Hg (Jan 9, 9:20 am)
Low9 °F (Jan 22, 7:50 am)55% (Jan 20, 1:20 pm)29.33 "Hg (Jan 13, 12:20 am)
Average27 °F82%30.14 "Hg
* Reported Jan 9 9:20 am — Jan 24 9:20 am, Leinfelden-Echterdingen, Weather by CustomWeather, © 2017

Note: Actual official high and low records may vary slightly from our data, if they occured in-between our weather recording intervals... More about our weather records

Advertising

Leinfelden-Echterdingen Weather History for the Previous 24 Hours

Scroll right to see more
 ConditionsComfort  
Time TempWeatherWind HumidityBarometerVisibility
9:20 am
Tue, Jan 24
19 °FSnow flurries. Ice fog.3 mph93%30.27 "Hg1 mi
8:50 am19 °FIce fog.2 mph93%30.27 "Hg1 mi
8:20 am19 °FIce fog.3 mph93%30.27 "Hg1 mi
7:50 am19 °FIce fog.2 mph93%30.27 "Hg1 mi
7:20 am19 °FIce fog.2 mph93%30.24 "Hg1 mi
6:50 am19 °FPassing clouds.3 mph93%30.24 "Hg1 mi
6:20 am19 °FIce fog.2 mph93%30.24 "Hg1 mi
5:50 am19 °FIce fog.2 mph93%30.24 "Hg1 mi
5:20 am18 °FIce fog.2 mph93%30.24 "Hg1 mi
4:50 am18 °FIce fog.2 mph93%30.24 "Hg1 mi
4:20 am18 °FIce fog.3 mph93%30.24 "Hg1 mi
3:50 am18 °FPassing clouds.2 mph93%30.24 "Hg1 mi
3:20 am18 °FIce fog.1 mph93%30.24 "Hg1 mi
2:50 am18 °FIce fog.1 mph93%30.24 "Hg1 mi
2:20 am16 °FIce fog.1 mph100%30.24 "Hg1 mi
1:50 am16 °FIce fog.2 mph100%30.24 "Hg1 mi
1:20 am14 °FIce fog.1 mph92%30.24 "Hg1 mi
12:50 am14 °FIce fog.1 mph92%30.24 "Hg1 mi
12:20 am14 °FIce fog.1 mph92%30.24 "Hg2 mi
11:50 pm
Mon, Jan 23
14 °FIce fog.2 mph92%30.24 "Hg2 mi
11:20 pm14 °FIce fog.1 mph92%30.21 "Hg2 mi
10:50 pm16 °FIce fog.2 mph93%30.21 "Hg2 mi
10:20 pm14 °FIce fog.3 mph92%30.21 "Hg2 mi
9:50 pm16 °FIce fog.1 mph86%30.21 "Hg2 mi
9:20 pm14 °FIce fog.2 mph85%30.21 "Hg2 mi
8:50 pm18 °FIce fog.3 mph86%30.21 "Hg3 mi
8:20 pm18 °FIce fog.1 mph86%30.21 "Hg3 mi
7:50 pm19 °FIce fog.1 mph86%30.21 "Hg3 mi
7:20 pm19 °FIce fog.3 mph86%30.21 "Hg3 mi
6:50 pm21 °FIce fog.3 mph86%30.21 "Hg3 mi
6:20 pm19 °FIce fog.1 mph86%30.21 "Hg3 mi
5:50 pm21 °FIce fog.1 mph80%30.21 "Hg3 mi
5:20 pm23 °FHaze.2 mph80%30.21 "Hg3 mi
4:50 pm25 °FHaze.1 mph74%30.21 "Hg3 mi
4:20 pm27 °FHaze.1 mph74%30.21 "Hg3 mi
3:50 pm27 °FHaze.2 mph74%30.21 "Hg3 mi
3:20 pm27 °FHaze.2 mph74%30.21 "Hg3 mi
2:50 pm27 °FHaze.1 mph74%30.21 "Hg3 mi
2:20 pm27 °FHaze.2 mph74%30.21 "Hg3 mi
1:50 pm27 °FHaze.2 mph74%30.21 "Hg3 mi
1:20 pm25 °FHaze.2 mph74%30.21 "Hg3 mi
12:50 pm23 °FHaze.2 mph80%30.21 "Hg3 mi
12:20 pm21 °FIce fog.2 mph80%30.24 "Hg3 mi
11:50 am19 °FIce fog.2 mph79%30.24 "Hg3 mi
11:20 am18 °FIce fog.2 mph86%30.24 "Hg2 mi
10:50 am16 °FIce fog.2 mph86%30.24 "Hg2 mi
10:20 am14 °FIce fog.1 mph85%30.24 "Hg2 mi
Weather by CustomWeather, © 2017

See weather overviewHow to use our weather pages